Time,TemperatureF,DewpointF,PressureIn,WindDirection,WindDirectionDegrees,WindSpeedMPH,WindSpeedGustMPH,Humidity,HourlyPrecipIn,Conditions,Clouds,dailyrainin,SolarRadiationWatts/m^2,SoftwareType,DateUTC
2013-01-17 00:03:00,36.0,35.0,-100.00,ESE,113,0.0,4.0,97,0.06,,,1.36,2.000000,,2013-01-17 00:03:00,
2013-01-17 00:11:00,36.0,35.0,-100.00,West,268,2.0,4.0,98,0.04,,,1.32,0.000000,,2013-01-17 00:11:00,
2013-01-17 00:33:00,36.0,35.0,-100.00,West,268,2.0,4.0,98,0.04,,,1.32,0.000000,,2013-01-17 00:33:00,
2013-01-17 00:42:00,36.0,35.0,-100.00,West,268,2.0,4.0,98,0.04,,,1.32,0.000000,,2013-01-17 00:42:00,
2013-01-17 00:53:00,36.0,35.0,-100.00,West,268,2.0,4.0,98,0.04,,,1.32,0.000000,,2013-01-17 00:53:00,
2013-01-17 01:02:00,36.0,35.0,-100.00,West,268,2.0,4.0,98,0.04,,,1.32,0.000000,,2013-01-17 01:02:00,
2013-01-17 01:11:00,37.0,36.0,-100.00,NE,41,1.0,4.0,98,0.01,,,1.25,0.000000,,2013-01-17 01:11:00,
2013-01-17 01:33:00,37.0,36.0,-100.00,NE,41,1.0,4.0,98,0.01,,,1.25,0.000000,,2013-01-17 01:33:00,
2013-01-17 01:43:00,37.0,36.0,-100.00,NE,41,1.0,4.0,98,0.01,,,1.25,0.000000,,2013-01-17 01:43:00,
2013-01-17 01:53:00,37.0,36.0,-100.00,NE,41,1.0,4.0,98,0.01,,,1.25,0.000000,,2013-01-17 01:53:00,
2013-01-17 02:02:00,37.0,36.0,-100.00,NE,41,1.0,4.0,98,0.01,,,1.25,0.000000,,2013-01-17 02:02:00,
2013-01-17 02:11:00,37.0,36.0,-100.00,SE,124,2.0,3.0,98,0.02,,,1.16,0.000000,,2013-01-17 02:11:00,
2013-01-17 02:32:00,37.0,36.0,-100.00,SE,124,2.0,3.0,98,0.02,,,1.16,0.000000,,2013-01-17 02:32:00,
2013-01-17 02:43:00,37.0,36.0,-100.00,SE,124,2.0,3.0,98,0.02,,,1.16,0.000000,,2013-01-17 02:43:00,
2013-01-17 02:52:00,37.0,36.0,-100.00,SE,124,2.0,3.0,98,0.02,,,1.16,0.000000,,2013-01-17 02:52:00,
2013-01-17 03:03:00,37.0,36.0,-100.00,SE,124,2.0,3.0,98,0.02,,,1.16,0.000000,,2013-01-17 03:03:00,
2013-01-17 03:11:00,38.0,37.0,-100.00,ESE,110,1.0,5.0,98,0.00,,,1.10,0.000000,,2013-01-17 03:11:00,
2013-01-17 03:33:00,38.0,37.0,-100.00,ESE,110,1.0,5.0,98,0.00,,,1.10,0.000000,,2013-01-17 03:33:00,
2013-01-17 03:43:00,38.0,37.0,-100.00,ESE,110,1.0,5.0,98,0.00,,,1.10,0.000000,,2013-01-17 03:43:00,
2013-01-17 03:53:00,38.0,37.0,-100.00,ESE,110,1.0,5.0,98,0.00,,,1.10,0.000000,,2013-01-17 03:53:00,
2013-01-17 04:02:00,38.0,37.0,-100.00,ESE,110,1.0,5.0,98,0.00,,,1.10,0.000000,,2013-01-17 04:02:00,
2013-01-17 04:11:00,38.0,37.0,-100.00,East,92,1.0,3.0,98,0.00,,,0.96,0.000000,,2013-01-17 04:11:00,
2013-01-17 04:33:00,38.0,37.0,-100.00,East,92,1.0,3.0,98,0.00,,,0.96,0.000000,,2013-01-17 04:33:00,
2013-01-17 04:43:00,38.0,37.0,-100.00,East,92,1.0,3.0,98,0.00,,,0.96,0.000000,,2013-01-17 04:43:00,
2013-01-17 04:53:00,38.0,37.0,-100.00,East,92,1.0,3.0,98,0.00,,,0.96,0.000000,,2013-01-17 04:53:00,
2013-01-17 05:05:00,38.0,37.0,-100.00,East,92,1.0,3.0,98,0.00,,,0.96,0.000000,,2013-01-17 05:05:00,
2013-01-17 05:11:00,38.0,38.0,-100.00,North,4,1.0,3.0,99,0.00,,,0.87,0.000000,,2013-01-17 05:11:00,
2013-01-17 05:33:00,38.0,38.0,-100.00,North,4,1.0,3.0,99,0.00,,,0.87,0.000000,,2013-01-17 05:33:00,
2013-01-17 05:43:00,38.0,38.0,-100.00,North,4,1.0,3.0,99,0.00,,,0.87,0.000000,,2013-01-17 05:43:00,
2013-01-17 05:53:00,38.0,38.0,-100.00,North,4,1.0,3.0,99,0.00,,,0.87,0.000000,,2013-01-17 05:53:00,
2013-01-17 06:03:00,38.0,38.0,-100.00,North,4,1.0,3.0,99,0.00,,,0.87,0.000000,,2013-01-17 06:03:00,
2013-01-17 06:11:00,37.0,37.0,-100.00,SE,130,4.0,9.0,99,0.00,,,0.85,0.000000,,2013-01-17 06:11:00,
2013-01-17 06:33:00,37.0,37.0,-100.00,SE,130,4.0,9.0,99,0.00,,,0.85,0.000000,,2013-01-17 06:33:00,
2013-01-17 06:42:00,37.0,37.0,-100.00,SE,130,4.0,9.0,99,0.00,,,0.85,0.000000,,2013-01-17 06:42:00,
2013-01-17 06:53:00,37.0,37.0,-100.00,SE,130,4.0,9.0,99,0.00,,,0.85,0.000000,,2013-01-17 06:53:00,
2013-01-17 07:02:00,37.0,37.0,-100.00,SE,130,4.0,9.0,99,0.00,,,0.85,0.000000,,2013-01-17 07:02:00,
2013-01-17 07:11:00,36.0,35.0,-100.00,ESE,111,3.0,9.0,98,0.00,,,0.82,0.000000,,2013-01-17 07:11:00,
2013-01-17 07:33:00,36.0,35.0,-100.00,ESE,111,3.0,9.0,98,0.00,,,0.82,0.000000,,2013-01-17 07:33:00,
2013-01-17 07:43:00,36.0,35.0,-100.00,ESE,111,3.0,9.0,98,0.00,,,0.82,0.000000,,2013-01-17 07:43:00,
2013-01-17 07:53:00,36.0,35.0,-100.00,ESE,111,3.0,9.0,98,0.00,,,0.82,0.000000,,2013-01-17 07:53:00,
2013-01-17 08:02:00,36.0,35.0,-100.00,ESE,111,3.0,9.0,98,0.00,,,0.82,0.000000,,2013-01-17 08:02:00,
2013-01-17 08:11:00,34.0,34.0,-100.00,ESE,117,3.0,9.0,98,0.00,,,0.76,0.000000,,2013-01-17 08:11:00,
2013-01-17 08:33:00,34.0,34.0,-100.00,ESE,117,3.0,9.0,98,0.00,,,0.76,0.000000,,2013-01-17 08:33:00,
2013-01-17 08:43:00,34.0,34.0,-100.00,ESE,117,3.0,9.0,98,0.00,,,0.76,0.000000,,2013-01-17 08:43:00,
2013-01-17 08:53:00,34.0,34.0,-100.00,ESE,117,3.0,9.0,98,0.00,,,0.76,0.000000,,2013-01-17 08:53:00,
2013-01-17 09:03:00,34.0,34.0,-100.00,ESE,117,3.0,9.0,98,0.00,,,0.76,0.000000,,2013-01-17 09:03:00,
2013-01-17 09:11:00,33.0,30.0,-100.00,SSE,147,4.0,9.0,87,0.01,,,0.68,0.000000,,2013-01-17 09:11:00,
2013-01-17 09:33:00,33.0,30.0,-100.00,SSE,147,4.0,9.0,87,0.01,,,0.68,0.000000,,2013-01-17 09:33:00,
2013-01-17 09:43:00,33.0,30.0,-100.00,SSE,147,4.0,9.0,87,0.01,,,0.68,0.000000,,2013-01-17 09:43:00,
2013-01-17 09:53:00,33.0,30.0,-100.00,SSE,147,4.0,9.0,87,0.01,,,0.68,0.000000,,2013-01-17 09:53:00,
2013-01-17 10:02:00,33.0,30.0,-100.00,SSE,147,4.0,9.0,87,0.01,,,0.68,0.000000,,2013-01-17 10:02:00,
2013-01-17 10:11:00,32.0,29.0,-100.00,SE,130,3.0,6.0,87,0.01,,,0.62,0.000000,,2013-01-17 10:11:00,
2013-01-17 10:33:00,32.0,29.0,-100.00,SE,130,3.0,6.0,87,0.01,,,0.62,0.000000,,2013-01-17 10:33:00,
2013-01-17 10:43:00,32.0,29.0,-100.00,SE,130,3.0,6.0,87,0.01,,,0.62,0.000000,,2013-01-17 10:43:00,
2013-01-17 10:53:00,32.0,29.0,-100.00,SE,130,3.0,6.0,87,0.01,,,0.62,0.000000,,2013-01-17 10:53:00,
2013-01-17 11:03:00,32.0,29.0,-100.00,SE,130,3.0,6.0,87,0.01,,,0.62,0.000000,,2013-01-17 11:03:00,
2013-01-17 11:11:00,32.0,28.0,-100.00,SSE,147,3.0,5.0,86,0.00,,,0.48,0.000000,,2013-01-17 11:11:00,
2013-01-17 11:33:00,32.0,28.0,-100.00,SSE,147,3.0,5.0,86,0.00,,,0.48,0.000000,,2013-01-17 11:33:00,
2013-01-17 11:43:00,32.0,28.0,-100.00,SSE,147,3.0,5.0,86,0.00,,,0.48,0.000000,,2013-01-17 11:43:00,
2013-01-17 11:53:00,32.0,28.0,-100.00,SSE,147,3.0,5.0,86,0.00,,,0.48,0.000000,,2013-01-17 11:53:00,
2013-01-17 12:03:00,32.0,28.0,-100.00,SSE,147,3.0,5.0,86,0.00,,,0.48,0.000000,,2013-01-17 12:03:00,
2013-01-17 12:11:00,32.0,27.0,-100.00,SW,230,3.0,5.0,80,0.00,,,0.38,0.000000,,2013-01-17 12:11:00,
2013-01-17 12:33:00,32.0,27.0,-100.00,SW,230,3.0,5.0,80,0.00,,,0.38,0.000000,,2013-01-17 12:33:00,
2013-01-17 12:43:00,32.0,27.0,-100.00,SW,230,3.0,5.0,80,0.00,,,0.38,0.000000,,2013-01-17 12:43:00,
2013-01-17 12:53:00,32.0,27.0,-100.00,SW,230,3.0,5.0,80,0.00,,,0.38,0.000000,,2013-01-17 12:53:00,
2013-01-17 13:03:00,32.0,27.0,-100.00,SW,230,3.0,5.0,80,0.00,,,0.38,0.000000,,2013-01-17 13:03:00,
2013-01-17 13:11:00,32.0,26.0,-100.00,SE,133,3.0,6.0,79,0.00,,,0.31,2.000000,,2013-01-17 13:11:00,
2013-01-17 13:33:00,32.0,26.0,-100.00,SE,133,3.0,6.0,79,0.00,,,0.31,2.000000,,2013-01-17 13:33:00,
2013-01-17 13:43:00,32.0,26.0,-100.00,SE,133,3.0,6.0,79,0.00,,,0.31,2.000000,,2013-01-17 13:43:00,
2013-01-17 13:53:00,32.0,26.0,-100.00,SE,133,3.0,6.0,79,0.00,,,0.31,2.000000,,2013-01-17 13:53:00,
2013-01-17 14:03:00,32.0,26.0,-100.00,SE,133,3.0,6.0,79,0.00,,,0.31,2.000000,,2013-01-17 14:03:00,
2013-01-17 14:11:00,32.0,25.0,-100.00,SSE,168,5.0,8.0,76,0.00,,,0.27,48.000000,,2013-01-17 14:11:00,
2013-01-17 14:33:00,32.0,25.0,-100.00,SSE,168,5.0,8.0,76,0.00,,,0.27,48.000000,,2013-01-17 14:33:00,
2013-01-17 14:43:00,32.0,25.0,-100.00,SSE,168,5.0,8.0,76,0.00,,,0.27,48.000000,,2013-01-17 14:43:00,
2013-01-17 14:53:00,32.0,25.0,-100.00,SSE,168,5.0,8.0,76,0.00,,,0.27,48.000000,,2013-01-17 14:53:00,
2013-01-17 15:03:00,32.0,25.0,-100.00,SSE,168,5.0,8.0,76,0.00,,,0.27,48.000000,,2013-01-17 15:03:00,
2013-01-17 15:11:00,31.0,25.0,-100.00,SE,142,5.0,10.0,78,0.01,,,0.28,31.000000,,2013-01-17 15:11:00,
2013-01-17 15:33:00,31.0,25.0,-100.00,SE,142,5.0,10.0,78,0.01,,,0.28,31.000000,,2013-01-17 15:33:00,
2013-01-17 15:43:00,31.0,25.0,-100.00,SE,142,5.0,10.0,78,0.01,,,0.28,31.000000,,2013-01-17 15:43:00,
2013-01-17 15:53:00,31.0,25.0,-100.00,SE,142,5.0,10.0,78,0.01,,,0.28,31.000000,,2013-01-17 15:53:00,
2013-01-17 16:03:00,31.0,25.0,-100.00,SE,142,5.0,10.0,78,0.01,,,0.28,31.000000,,2013-01-17 16:03:00,
2013-01-17 16:11:00,31.0,29.0,-100.00,South,178,5.0,11.0,92,0.13,,,0.41,31.000000,,2013-01-17 16:11:00,
2013-01-17 16:34:00,31.0,29.0,-100.00,South,178,5.0,11.0,92,0.13,,,0.41,31.000000,,2013-01-17 16:34:00,
2013-01-17 16:44:00,31.0,29.0,-100.00,South,178,5.0,11.0,92,0.13,,,0.41,31.000000,,2013-01-17 16:44:00,
2013-01-17 16:53:00,31.0,29.0,-100.00,South,178,5.0,11.0,92,0.13,,,0.41,31.000000,,2013-01-17 16:53:00,
2013-01-17 17:03:00,31.0,29.0,-100.00,South,178,5.0,11.0,92,0.13,,,0.41,31.000000,,2013-01-17 17:03:00,
2013-01-17 17:11:00,31.0,29.0,-100.00,SSW,192,4.0,11.0,92,0.19,,,0.60,19.000000,,2013-01-17 17:11:00,
2013-01-17 17:33:00,31.0,29.0,-100.00,SSW,192,4.0,11.0,92,0.19,,,0.60,19.000000,,2013-01-17 17:33:00,
2013-01-17 17:43:00,31.0,29.0,-100.00,SSW,192,4.0,11.0,92,0.19,,,0.60,19.000000,,2013-01-17 17:43:00,
2013-01-17 17:54:00,31.0,29.0,-100.00,SSW,192,4.0,11.0,92,0.19,,,0.60,19.000000,,2013-01-17 17:54:00,
2013-01-17 18:04:00,31.0,29.0,-100.00,SSW,192,4.0,11.0,92,0.19,,,0.60,19.000000,,2013-01-17 18:04:00,
2013-01-17 18:11:00,29.0,27.0,-100.00,SSE,150,6.0,11.0,94,0.11,,,0.70,7.000000,,2013-01-17 18:11:00,
2013-01-17 18:34:00,29.0,27.0,-100.00,SSE,150,6.0,11.0,94,0.11,,,0.70,7.000000,,2013-01-17 18:34:00,
2013-01-17 18:44:00,29.0,27.0,-100.00,SSE,150,6.0,11.0,94,0.11,,,0.70,7.000000,,2013-01-17 18:44:00,
2013-01-17 18:54:00,29.0,27.0,-100.00,SSE,150,6.0,11.0,94,0.11,,,0.70,7.000000,,2013-01-17 18:54:00,
2013-01-17 19:04:00,29.0,27.0,-100.00,SSE,150,6.0,11.0,94,0.11,,,0.70,7.000000,,2013-01-17 19:04:00,
2013-01-17 19:11:00,28.0,27.0,-100.00,SSE,155,3.0,9.0,95,0.00,,,0.67,7.000000,,2013-01-17 19:11:00,
2013-01-17 19:43:00,28.0,27.0,-100.00,SSE,155,3.0,9.0,95,0.00,,,0.67,7.000000,,2013-01-17 19:43:00,
2013-01-17 19:54:00,28.0,27.0,-100.00,SSE,155,3.0,9.0,95,0.00,,,0.67,7.000000,,2013-01-17 19:54:00,
2013-01-17 20:03:00,28.0,27.0,-100.00,SSE,155,3.0,9.0,95,0.00,,,0.67,7.000000,,2013-01-17 20:03:00,
2013-01-17 20:11:00,28.0,27.0,-100.00,SSE,155,3.0,8.0,96,0.00,,,0.66,9.000000,,2013-01-17 20:11:00,
2013-01-17 20:43:00,28.0,27.0,-100.00,SSE,155,3.0,8.0,96,0.00,,,0.66,9.000000,,2013-01-17 20:43:00,
2013-01-17 20:54:00,28.0,27.0,-100.00,SSE,155,3.0,8.0,96,0.00,,,0.66,9.000000,,2013-01-17 20:54:00,
2013-01-17 21:03:00,28.0,27.0,-100.00,SSE,155,3.0,8.0,96,0.00,,,0.66,9.000000,,2013-01-17 21:03:00,
2013-01-17 21:11:00,28.0,27.0,-100.00,SW,227,2.0,6.0,96,0.00,,,0.64,1.000000,,2013-01-17 21:11:00,
2013-01-17 21:34:00,28.0,27.0,-100.00,SW,227,2.0,6.0,96,0.00,,,0.64,1.000000,,2013-01-17 21:34:00,
2013-01-17 21:43:00,28.0,27.0,-100.00,SW,227,2.0,6.0,96,0.00,,,0.64,1.000000,,2013-01-17 21:43:00,
2013-01-17 21:53:00,28.0,27.0,-100.00,SW,227,2.0,6.0,96,0.00,,,0.64,1.000000,,2013-01-17 21:53:00,
2013-01-17 22:04:00,28.0,27.0,-100.00,SW,227,2.0,6.0,96,0.00,,,0.64,1.000000,,2013-01-17 22:04:00,
2013-01-17 22:11:00,29.0,28.0,-100.00,South,184,3.0,5.0,96,0.00,,,0.59,0.000000,,2013-01-17 22:11:00,
2013-01-17 22:33:00,29.0,28.0,-100.00,South,184,3.0,5.0,96,0.00,,,0.59,0.000000,,2013-01-17 22:33:00,
2013-01-17 22:43:00,29.0,28.0,-100.00,South,184,3.0,5.0,96,0.00,,,0.59,0.000000,,2013-01-17 22:43:00,
2013-01-17 22:53:00,29.0,28.0,-100.00,South,184,3.0,5.0,96,0.00,,,0.59,0.000000,,2013-01-17 22:53:00,
2013-01-17 23:03:00,29.0,28.0,-100.00,South,184,3.0,5.0,96,0.00,,,0.59,0.000000,,2013-01-17 23:03:00,
2013-01-17 23:11:00,29.0,28.0,-100.00,South,169,3.0,8.0,97,0.00,,,0.53,0.000000,,2013-01-17 23:11:00,
2013-01-17 23:43:00,29.0,28.0,-100.00,South,169,3.0,8.0,97,0.00,,,0.53,0.000000,,2013-01-17 23:43:00,
2013-01-17 23:53:00,29.0,28.0,-100.00,South,169,3.0,8.0,97,0.00,,,0.53,0.000000,,2013-01-17 23:53:00,